Hourly Data Report for October 05, 2017

All times are specified in Local Standard Time (LST). Add 1 hour to adjust for Daylight Saving Time where and when it is observed.

CARIBOU POINT (AUT)
NOVA SCOTIA

45°46'00.000" N
62°41'00.000" W
2.40 m
8200774
71415
WBK

Download Data

Hourly Data (October 2017)
Hourly Data Report for October 5, 2017
Temp Definition
°C
Dew Point Temp Definition
°C
Rel Hum Definition
%
Wind Dir Definition
10's deg

Wind Spd Definition
km/h
Visibility Definition
km
Stn Press Definition
kPa
Hmdx Definition


Wind Chill Definition


Weather Definition


TIME
00:00 14.4 10.6 78 23 6   101.16     LegendNANA
01:00 14.1 10.4 78 22 11   101.09     LegendNANA
02:00 13.8 10.4 80 23 12   101.02     LegendNANA
03:00 13.4 10.7 84 25 9   101.04     LegendNANA
04:00 13.4 11.1 86 20 9   100.97     LegendNANA
05:00 14.0 11.8 87 22 3   100.92     LegendNANA
06:00 14.7 12.4 86 22 11   100.85     LegendNANA
07:00 15.4 12.7 84 24 8   100.93     LegendNANA
08:00 17.0 13.2 78 24 18   100.97     LegendNANA
09:00 19.1 14.1 73 26 15   101.04     LegendNANA
10:00 18.1 13.9 76 29 30   101.09     LegendNANA
11:00 17.9 14.2 79 29 31   101.14     LegendNANA
12:00 17.6 14.2 81 29 22   101.12     LegendNANA
13:00 17.6 13.1 75 29 20   101.13     LegendNANA
14:00 17.8 12.2 70 29 17   101.10     LegendNANA
15:00 17.6 13.0 75 29 16   101.10     LegendNANA
16:00 17.0 12.1 73 29 16   101.09     LegendNANA
17:00 16.6 11.9 74 27 9   101.14     LegendNANA
18:00 15.0 10.7 76 26 6   101.14     LegendNANA
19:00 14.6 11.7 83 24 8   101.19     LegendNANA
20:00 14.3 11.1 81 24 7   101.25     LegendNANA
21:00 14.0 11.2 83 25 8   101.27     LegendNANA
22:00 12.8 10.2 84 26 9   101.31     LegendNANA
23:00 13.4 10.0 80 26 11   101.32     LegendNANA

Notes on Data Quality.

Legend

  • E = Estimated
  • M = Missing
  • NA = Not Available
  • ‡ = Partner data that is not subject to review by the National Climate Archives
Date modified: